SCD 1

Last updated on Wed May 14 2025 00:02:26 GMT+0000 (Coordinated Universal Time)

1 22490U 93009B 25133.34317120 .00000498 00000+0 85643-4 0 9993 2 22490 24.9679 155.8309 0041834 226.8932 157.1146 14.45843157703185
UTC large
Height (km)
Speed (km/s)
/
Latitude / Longitude
Inclination (degrees)
Orbital Period (minutes)
Azimuth
Elevation
Range (km)
Doppler Factor

Next 0 passes for location: London (51.5072 / 0.1276)

Sorry there are no passes over London.